This is the latest recevied weather packets stored in our database for station/object WK7G. If no packets are shown the sender has not sent any weather packets the latest 10 day(s).
| Time | Temp. | Humidity | Pressure | Rain* | Wind** | Luminosity | Snow |
|---|---|---|---|---|---|---|---|
| 1778024062 | 12.22° C | 33% | 1003.9 hPa | 0 mm | - | 440 W/m² | - |
| 1778023759 | 11.67° C | 35% | 1003.7 hPa | 0 mm | - | 446 W/m² | - |
| 1778023457 | 11.67° C | 33% | 1003.7 hPa | 0 mm | - | 482 W/m² | - |
| 1778023153 | 12.22° C | 33% | 1003.6 hPa | 0 mm | - | 519 W/m² | - |
| 1778022851 | 12.22° C | 33% | 1003.4 hPa | 0 mm | - | 507 W/m² | - |
| 1778022549 | 12.22° C | 36% | 1003.4 hPa | 0 mm | - | 523 W/m² | - |
| 1778022246 | 11.67° C | 32% | 1003.4 hPa | 0 mm | - | 562 W/m² | - |
| 1778021943 | 11.67° C | 32% | 1003.4 hPa | 0 mm | - | 521 W/m² | - |
| 1778021640 | 12.22° C | 33% | 1003.6 hPa | 0 mm | - | 544 W/m² | - |
| 1778021340 | 12.22° C | 33% | 1003.4 hPa | 0 mm | - | 512 W/m² | - |
| 1778021038 | 12.78° C | 32% | 1003.3 hPa | 0 mm | - | 262 W/m² | - |
| 1778020735 | 12.22° C | 33% | 1003.7 hPa | 0 mm | - | 571 W/m² | - |
| 1778020432 | 11.67° C | 32% | 1003.3 hPa | 0 mm | - | 568 W/m² | - |
| 1778020128 | 11.67° C | 31% | 1003.6 hPa | 0 mm | - | 568 W/m² | - |
| 1778019824 | 12.78° C | 30% | 1003.3 hPa | 0 mm | - | 595 W/m² | - |
| 1778019521 | 12.78° C | 32% | 1003.3 hPa | 0 mm | - | 595 W/m² | - |
| 1778019218 | 12.22° C | 29% | 1003.6 hPa | 0 mm | - | 615 W/m² | - |
| 1778018915 | 12.78° C | 29% | 1003.7 hPa | 0 mm | - | 599 W/m² | - |
| 1778018612 | 12.78° C | 30% | 1003.6 hPa | 0 mm | - | 600 W/m² | - |
| 1778018310 | 12.78° C | 30% | 1003.8 hPa | 0 mm | - | 615 W/m² | - |
| 1778018008 | 12.78° C | 31% | 1003.7 hPa | 0 mm | - | 637 W/m² | - |
| 1778017705 | 12.78° C | 32% | 1003.8 hPa | 0 mm | - | 714 W/m² | - |
| 1778017403 | 12.78° C | 31% | 1003.4 hPa | 0 mm | - | 645 W/m² | - |
| 1778017099 | 13.33° C | 30% | 1003.6 hPa | 0 mm | - | 650 W/m² | - |
| 1778016797 | 12.22° C | 30% | 1003.7 hPa | 0 mm | - | 643 W/m² | - |
* Rain latest hour (hover to see other rain measurements)
** Current wind speed in m/s (hover to see current wind gust speed)